{"data":{"norad_id":65692,"epoch":"2026-09-20T23:06:21.364992Z","epoch_age_seconds":68776,"freshness":"FRESH","line1":"1 65692U 25212S   26263.96274728  .00006642  00000+0  20755-3 0  9993","line2":"2 65692  53.1587 155.6079 0001587  87.2997 272.8187 15.34397980 57179","mean_motion":15.3439798,"eccentricity":0.0001587,"inclination_deg":53.1587,"raan_deg":155.6079,"arg_perigee_deg":87.2997,"mean_anomaly_deg":272.8187,"bstar":0.00020755,"rev_number":5717,"period_min":93.847881629771,"perigee_km":461.62360178045,"apogee_km":463.79488637832,"semimajor_km":6840.8462440794,"source":"CELESTRAK","updated_at":"2026-09-21T09:00:35.688323Z"}}